Home > Weather > Nikaia > Past weeks

Flag for Greece Weather for the Past 2 Weeks in Nikaia, Greece

Now
61 °F

Scattered clouds.


Feels Like: 61 °F
Forecast: 53 / 72 °F
Wind: 6 mph from Northwest

Location: Elefsis Airport

Current Time: May 6, 2016 at 9:17:07 AM

Latest Report: May 6, 2016 at 8:20 AM


Visibility: N/A

Pressure: 29.95 "Hg

Humidity: 68%

Dew Point: 50 °F

Location of NikaiaLocation

Historic Weather in Nikaia — Graph

°F

Nikaia Temperature Yesterday

Maximum temperature yesterday: 68 °F (at 3:50 PM)
Minimum temperature yesterday: 52 °F (at 10:50 PM)
Average temperature yesterday: 61 °F

High & Low Weather Summary for the Past Weeks

 TemperatureHumidityPressure
High79 °F (May 1, 2:50 PM)88% (May 2, 8:50 PM)30.27 "Hg (May 2, 8:50 PM)
Low50 °F (May 3, 5:50 AM)18% (Apr 22, 12:50 PM)29.50 "Hg (Apr 24, 6:20 PM)
Average65 °F48%29.86 "Hg
* Reported Apr 21 7:50 AM — May 6 7:50 AM, Nikaia, Weather by CustomWeather, © 2016

Note: Actual official high and low records may vary slightly from our data, if they occured in-between our weather recording intervals... More about our weather records

Advertising

Nikaia Weather History for the Previous 24 Hours

Scroll right to see more
 ConditionsComfort  
Time TempWeatherWind HumidityBarometerVisibility
7:50 AM
Fri, May 6
59 °FBroken clouds.5 mph72%29.95 "HgN/A
7:20 AM55 °FPartly cloudy.7 mph82%29.95 "HgN/A
6:50 AM55 °FPartly cloudy.5 mph82%29.95 "HgN/A
6:20 AM55 °FPartly cloudy.6 mph82%29.95 "HgN/A
5:50 AM55 °FLight rain. Partly cloudy.10 mph77%29.95 "HgN/A
5:20 AM54 °FPassing clouds.5 mph67%29.95 "HgN/A
4:50 AM52 °FPassing clouds.5 mph72%29.95 "HgN/A
4:20 AM52 °FPassing clouds.6 mph67%29.95 "HgN/A
3:50 AM52 °FPassing clouds.6 mph67%29.95 "HgN/A
3:20 AM55 °FPassing clouds.No wind59%29.95 "HgN/A
2:50 AM55 °FPartly cloudy.No wind59%29.95 "HgN/A
2:20 AM57 °FPartly cloudy.No wind55%29.95 "HgN/A
1:50 AM57 °FPartly cloudy.No wind55%29.95 "HgN/A
1:20 AM57 °FPartly cloudy.6 mph55%29.95 "HgN/A
12:50 AM57 °FPartly cloudy.6 mph55%29.95 "HgN/A
12:20 AM57 °FPartly cloudy.6 mph55%29.95 "HgN/A
11:50 PM
Thu, May 5
57 °FPartly cloudy.6 mph55%29.95 "HgN/A
11:20 PM54 °FPassing clouds.7 mph58%29.95 "HgN/A
10:50 PM52 °FPassing clouds.6 mph67%29.95 "HgN/A
10:20 PM55 °FPassing clouds.7 mph59%29.95 "HgN/A
9:50 PM59 °FPassing clouds.6 mph48%29.92 "HgN/A
9:20 PM61 °FPassing clouds.No wind42%29.92 "HgN/A
8:50 PM61 °FPassing clouds.No wind42%29.92 "HgN/A
8:20 PM63 °FPassing clouds.5 mph39%29.89 "HgN/A
7:50 PM64 °FPassing clouds.8 mph37%29.89 "HgN/A
7:20 PM66 °FPassing clouds.10 mph35%29.89 "HgN/A
6:50 PM68 °FScattered clouds.10 mph33%29.89 "HgN/A
6:20 PM66 °FScattered clouds.10 mph35%29.89 "HgN/A
5:50 PM68 °FScattered clouds.12 mph33%29.89 "HgN/A
5:20 PM66 °FScattered clouds.12 mph35%29.89 "HgN/A
4:20 PM66 °FBroken clouds.14 mph37%29.89 "HgN/A
3:50 PM68 °FBroken clouds.10 mph38%29.89 "HgN/A
3:20 PM63 °FPartly sunny.12 mph56%29.92 "HgN/A
2:50 PM66 °FPartly sunny.13 mph43%29.89 "HgN/A
2:20 PM66 °FPartly sunny.9 mph43%29.89 "HgN/A
1:50 PM66 °FPartly sunny.12 mph43%29.89 "HgN/A
12:20 PM64 °FBroken clouds.12 mph49%29.89 "HgN/A
11:50 AM61 °FPartly sunny.10 mph63%29.89 "HgN/A
11:20 AM57 °FPartly sunny.9 mph77%29.89 "HgN/A
10:50 AM59 °FPartly sunny.9 mph68%29.89 "HgN/A
10:20 AM61 °FPartly sunny.7 mph59%29.86 "HgN/A
9:50 AM61 °FPartly sunny.12 mph59%29.86 "HgN/A
9:20 AM59 °FPartly sunny.7 mph63%29.86 "HgN/A
Weather by CustomWeather, © 2016

See weather overviewHow to use our weather pages